RH
14 14 14 13 12 10 10 8 7 6 6 5 5 4 4 4 4 3 3 4 4 4 5 5 6 7 8 8 9 10 11 12 12 14 15 16 17 18 19 20 20 21 22 22 24 24 24 25 26 26 26 26 26 26 26 27 28 28 29 30 31 32 32 34 34 35 36 37 37 38 38 38 39 39 39 38 38 38 38 38 38 39 40 39 40 45
14 14 13 11 10 8 8 7 6 6 5 5 4 4 4 3 3 4 4 4 5 5 6 7 8 8 10 10 11 12 13 14 15 16 18 19 20 20 21 22 23 23 24 24 24 25 26 26 26 26 26 26 26 27 28 28 30 30 32 32 34 34 35 36 36 37 38 38 38 38 39 39 40 40 40 40 40 40 40 40 40 40 38 40 48 56
13 12 10 9 8 7 6 6 5 5 4 4 4 3 3 3 3 4 4 5 6 7 8 8 10 10 12 12 13 14 15 16 18 19 20 21 22 22 23 24 24 24 24 25 26 26 26 26 26 26 27 28 28 29 30 32 32 34 34 35 36 36 36 37 37 37 38 38 38 38 38 38 42 44 40 40 40 40 41 42 41 42 45 58 69 74
11 10 8 8 7 6 6 5 4 4 4 3 3 3 3 3 4 5 6 6 8 8 10 10 12 12 14 15 16 17 18 19 20 21 22 23 23 24 24 24 25 26 26 26 26 27 27 28 28 28 29 30 31 32 34 34 35 36 36 36 36 36 36 36 36 36 36 36 36 36 36 36 41 45 40 39 39 40 40 41 40 43 53 66 74 77
9 8 7 6 6 5 4 4 4 3 3 3 3 3 3 4 5 6 7 8 10 10 11 12 14 15 16 17 18 19 20 21 22 22 23 24 24 24 25 26 26 26 27 28 28 28 29 30 30 31 32 33 34 35 35 36 36 35 35 35 34 34 34 34 34 35 35 35 35 35 35 35 36 36 36 38 39 40 40 40 40 41 45 52 59 64
8 7 6 5 5 4 4 3 3 3 2 3 3 4 4 5 6 7 8 10 11 12 13 14 16 16 17 18 19 20 21 22 23 24 24 24 25 26 26 27 28 28 29 30 30 30 31 32 33 34 34 35 35 35 35 34 34 33 33 33 32 32 33 33 33 33 33 34 34 34 35 35 36 36 37 38 39 40 40 40 41 42 42 44 46 49
6 6 5 4 4 3 3 2 2 2 2 3 4 4 5 6 8 8 10 11 12 13 14 16 17 18 18 19 20 21 22 23 24 24 25 26 26 26 27 28 29 30 31 32 32 32 33 34 34 34 34 34 34 33 32 32 32 31 31 31 31 31 31 31 32 32 32 33 33 34 34 34 35 36 36 37 38 38 39 39 40 40 41 42 42 42
6 5 4 4 3 3 2 2 2 2 3 4 4 5 6 8 9 10 12 12 13 14 15 16 17 18 19 20 20 21 22 24 24 26 26 26 27 28 29 30 31 32 33 34 34 34 34 34 34 34 33 32 32 31 30 30 29 29 29 29 30 30 30 30 30 31 31 32 32 32 33 33 34 34 34 34 35 35 35 36 36 36 37 37 37 37
4 4 3 3 2 2 2 2 3 3 4 5 6 7 8 8 10 11 12 13 14 14 15 16 16 17 18 20 21 22 23 24 26 26 26 27 28 30 31 32 34 34 35 35 35 34 34 33 32 32 31 30 29 28 28 28 28 28 28 28 29 29 29 30 30 30 31 31 32 32 32 33 33 33 34 34 34 34 34 34 34 34 34 34 34 34
4 3 2 2 2 2 2 3 3 4 5 6 7 8 10 10 11 11 12 13 14 14 15 16 16 17 17 20 22 24 25 26 28 28 29 30 31 32 34 35 36 36 36 35 34 33 32 31 30 30 29 28 28 27 27 28 28 28 28 28 29 29 30 30 31 32 32 33 34 34 35 36 36 37 37 38 38 38 38 38 38 38 38 38 37 37
3 2 2 2 2 3 3 4 4 5 6 7 8 10 11 12 12 12 12 12 13 14 15 16 18 18 18 20 22 24 26 28 30 31 32 33 34 35 37 37 36 36 35 34 32 31 30 30 29 28 27 27 27 27 28 28 28 29 29 30 30 31 32 33 34 35 36 37 38 39 40 41 42 43 43 44 44 44 44 45 45 45 44 44 44 44
2 2 2 2 3 3 4 4 5 6 7 8 9 10 11 12 12 12 12 12 13 14 15 17 19 20 21 22 23 25 28 30 31 33 34 35 36 37 38 37 36 34 32 31 30 29 28 28 28 27 27 27 28 28 29 29 30 31 32 32 34 34 36 37 39 40 42 43 44 45 46 48 48 49 50 50 50 50 50 51 51 51 51 51 51 51
2 2 3 3 3 4 4 5 6 7 8 9 10 10 11 12 12 12 13 14 14 16 16 18 20 22 23 24 24 26 29 32 34 35 36 37 36 36 36 35 33 31 30 29 28 28 27 27 27 27 28 28 29 30 31 32 32 34 35 36 38 39 41 42 44 46 47 49 50 51 52 53 54 54 54 54 55 55 55 55 55 55 55 55 55 55
2 3 3 4 4 5 5 6 7 8 8 10 10 11 12 12 12 13 13 14 16 17 19 20 22 24 25 25 26 27 30 33 36 37 38 38 36 35 34 32 30 28 27 27 27 27 26 27 28 28 29 30 31 32 33 34 36 37 39 40 42 44 46 48 50 51 52 54 55 56 56 57 58 58 58 58 58 58 58 58 58 58 58 58 58 58
3 3 4 4 5 6 6 7 8 8 9 10 11 12 12 13 13 14 15 16 17 18 20 22 24 26 28 28 28 28 30 34 36 38 38 37 35 34 32 30 28 27 26 26 26 27 27 28 29 30 31 32 34 35 36 38 40 41 42 44 46 49 51 53 54 56 57 58 59 60 60 61 62 62 63 63 64 64 64 63 63 62 62 62 62 62
3 3 4 5 6 6 7 8 8 9 10 10 11 12 13 13 14 15 16 18 19 20 21 22 23 25 28 30 31 31 32 34 36 37 36 35 33 32 30 28 26 26 26 26 27 28 28 30 31 32 34 35 37 38 40 41 43 44 46 49 51 53 56 57 58 60 61 62 63 64 65 66 66 67 68 68 69 69 69 69 69 69 68 68 67 66
3 4 4 5 6 7 8 8 9 10 10 10 11 12 14 14 16 16 18 19 20 22 22 23 23 24 26 28 31 32 33 35 36 35 34 32 32 30 29 27 26 26 27 28 28 29 30 31 33 35 36 38 40 42 43 45 46 48 51 53 56 58 60 61 63 64 65 66 67 68 69 70 70 71 72 72 73 73 74 74 74 74 74 73 73 72
4 4 5 6 7 8 8 9 10 10 10 11 12 13 14 16 17 19 20 21 22 23 23 24 24 25 26 28 30 32 34 35 35 34 32 31 30 30 28 27 26 27 28 28 29 30 31 33 35 38 40 42 43 45 46 48 50 53 55 58 60 62 64 65 66 67 68 69 70 70 71 72 72 73 73 74 74 74 74 75 76 76 76 76 76 76
4 5 6 7 8 8 10 10 10 10 10 11 12 14 15 17 18 20 21 22 23 24 24 25 26 27 28 30 32 33 34 35 34 32 30 30 30 29 28 27 27 28 28 29 30 31 33 36 38 40 43 45 46 48 50 52 55 57 60 61 63 65 67 68 69 69 70 70 71 72 72 72 72 72 73 73 73 73 73 73 74 74 76 77 78 78
5 6 7 8 8 10 10 10 10 10 11 12 13 14 16 18 20 21 22 23 24 24 26 26 28 30 31 33 34 34 35 34 33 31 30 30 29 28 28 28 28 28 29 30 32 33 36 39 42 44 46 48 50 52 54 56 58 60 62 64 66 67 68 69 69 70 70 70 70 70 70 70 70 70 70 70 70 70 70 70 70 71 72 74 76 78
6 7 8 9 10 10 10 10 10 10 11 12 14 15 17 18 20 22 24 24 25 26 27 29 31 32 34 35 36 36 35 34 32 30 30 30 29 28 28 28 28 29 30 31 33 36 39 42 44 47 49 50 52 54 57 58 60 62 64 66 67 68 68 68 68 69 69 68 68 68 67 67 67 67 67 67 67 67 67 66 66 67 68 69 72 74
7 8 8 10 10 10 10 10 10 11 12 13 14 16 18 19 20 22 24 24 26 28 30 32 34 36 37 38 38 37 35 33 31 30 29 29 28 28 29 29 29 29 30 32 36 39 42 45 48 49 51 52 54 57 59 61 62 64 65 66 67 67 68 67 67 66 66 65 64 64 63 63 63 63 63 64 64 64 64 64 64 64 64 65 67 70
8 8 10 10 10 10 10 10 11 12 13 14 16 18 19 20 21 22 23 24 26 28 31 34 37 39 40 40 39 37 34 32 31 30 29 28 28 28 30 31 31 30 30 33 38 42 46 48 50 52 53 55 57 59 61 62 63 64 66 66 67 67 67 66 65 64 63 62 60 60 60 60 60 61 62 62 62 63 63 63 62 62 62 62 64 67
8 10 10 10 10 10 10 11 12 12 14 15 17 19 20 22 22 23 24 25 27 30 33 36 39 41 42 40 39 36 34 32 30 29 29 28 28 29 31 33 34 33 32 35 40 44 49 51 52 54 55 58 60 61 62 63 64 65 66 67 68 68 67 65 64 62 60 59 58 58 58 58 60 60 61 62 62 62 63 62 62 61 60 60 62 64
9 10 10 10 10 10 11 12 13 14 15 16 18 20 22 23 24 24 25 26 29 32 36 40 40 41 40 38 36 34 33 31 30 29 28 28 29 31 33 35 36 37 37 38 42 46 50 52 54 56 58 60 62 63 63 64 65 66 68 69 69 68 66 64 62 60 59 58 58 58 58 58 59 60 61 62 62 62 62 62 62 61 60 60 61 63
10 10 10 10 10 11 12 13 14 15 16 18 19 21 22 24 25 26 27 29 32 35 38 40 40 39 37 34 33 32 31 30 29 28 28 29 30 32 35 38 40 42 42 42 44 46 50 53 55 58 60 62 64 65 65 66 67 68 70 70 69 67 65 63 61 60 59 58 58 58 58 58 59 60 60 61 61 62 62 62 61 60 60 60 61 63
10 10 10 10 10 11 12 14 15 16 18 19 20 22 23 24 26 28 30 32 34 36 37 37 36 34 33 32 31 30 30 29 29 29 30 30 32 34 37 40 42 45 48 48 48 48 50 53 55 58 61 64 66 67 68 69 70 71 71 70 68 66 65 63 62 61 60 60 60 60 60 59 59 59 60 60 60 60 61 60 60 60 60 60 61 63
10 10 10 10 10 11 12 14 16 17 18 20 21 22 24 24 26 29 31 33 35 36 36 34 32 30 29 29 29 29 29 28 29 30 32 33 35 37 39 41 44 47 50 52 53 52 51 53 55 58 61 64 67 69 70 71 72 72 71 70 68 66 65 64 63 63 62 62 62 61 60 60 59 58 58 59 59 60 60 60 60 60 59 60 61 63
10 10 10 10 10 12 13 15 16 18 19 20 22 23 24 26 27 29 31 33 34 35 34 32 30 28 28 28 29 29 28 28 30 33 34 36 38 40 42 43 45 47 49 53 56 57 56 55 56 58 60 64 66 68 70 71 72 71 70 68 67 66 66 65 65 65 65 64 64 62 61 60 59 58 58 58 58 59 60 60 59 58 58 60 61 63
10 10 10 10 11 12 14 16 17 18 20 21 22 24 24 26 28 30 32 33 33 33 32 30 28 28 27 28 28 28 28 30 33 35 36 38 40 42 44 46 46 47 48 50 54 58 60 58 58 58 60 63 66 67 68 69 69 68 68 67 66 66 66 66 67 67 67 66 65 64 62 61 60 59 58 58 59 60 60 60 59 58 58 60 61 64
10 10 10 11 12 13 14 16 18 19 20 22 23 24 26 27 29 30 32 32 32 30 29 28 27 27 27 26 26 27 28 32 36 38 39 40 42 44 46 48 48 49 49 50 52 54 58 61 62 62 62 64 66 66 66 66 66 66 65 65 66 66 66 67 68 68 68 67 66 65 63 62 60 60 59 60 60 60 60 60 60 60 59 60 62 64
10 10 10 11 12 14 15 17 18 20 21 22 24 25 27 28 30 30 31 30 29 28 27 26 26 27 27 26 27 28 30 34 38 40 41 42 44 46 47 49 50 52 52 52 53 54 56 60 63 65 65 66 67 67 66 66 65 65 64 65 65 66 67 68 68 69 68 68 66 65 64 62 61 60 60 60 60 60 61 61 60 60 60 60 62 65
10 10 10 12 13 14 16 17 19 20 22 23 24 26 28 29 30 30 30 28 27 26 26 26 26 26 26 27 29 31 33 37 40 42 43 44 46 47 48 49 50 52 54 56 56 57 58 60 64 67 68 69 69 69 69 68 67 66 65 65 66 66 67 68 68 68 68 68 66 65 64 63 61 60 60 60 60 61 61 61 61 62 62 62 64 66
10 10 11 12 13 15 16 18 19 21 22 24 25 26 28 30 30 30 28 27 26 24 24 24 24 24 26 27 30 32 36 40 42 44 44 46 47 48 48 48 50 52 54 56 58 60 60 62 64 67 70 71 72 72 72 70 70 68 67 67 67 67 68 68 68 68 68 67 66 66 64 63 62 60 60 60 61 61 62 62 63 63 64 64 66 68
10 10 11 12 14 16 17 18 20 21 23 24 26 27 28 29 29 28 27 26 25 24 24 24 24 24 24 27 30 33 36 42 44 45 46 47 48 48 48 48 50 51 53 56 58 61 63 64 65 66 68 69 70 71 72 72 71 70 69 68 68 69 69 68 68 67 67 67 67 66 66 64 63 62 60 61 62 62 64 64 64 65 66 67 69 71
11 11 12 14 15 16 18 19 20 22 23 24 26 27 28 28 28 27 26 26 25 24 24 24 24 24 26 28 31 34 38 42 45 46 48 48 49 49 49 49 50 51 53 55 58 60 63 65 66 66 66 66 66 66 68 68 69 70 70 70 70 70 69 68 67 66 66 66 67 67 68 66 65 63 62 62 63 64 66 66 66 67 68 69 71 73
11 12 13 14 16 17 18 20 21 22 23 24 26 27 28 27 26 26 26 26 26 25 24 24 24 26 27 30 33 37 40 43 46 47 49 50 50 51 51 50 50 51 53 55 57 60 62 64 66 66 66 64 64 63 62 63 65 66 69 70 71 70 69 67 66 65 65 66 67 68 68 67 66 65 64 64 64 66 67 68 68 68 68 70 72 74
12 13 14 15 16 18 19 20 21 22 24 25 26 26 26 26 25 24 25 26 26 26 26 25 25 26 28 32 35 38 41 43 46 48 50 51 52 52 53 53 52 52 53 55 57 59 61 62 63 63 63 63 63 62 61 61 62 64 67 70 71 71 69 67 66 65 65 65 66 66 66 66 66 66 66 66 67 67 68 68 69 69 68 69 71 73
12 14 14 16 17 18 19 20 21 22 24 24 26 25 24 24 24 24 25 26 26 26 26 26 26 27 29 32 35 38 41 44 46 48 51 52 53 54 55 56 56 56 55 56 57 58 60 61 61 61 61 62 62 62 62 62 62 63 64 66 68 68 67 66 65 65 65 65 65 65 64 62 62 64 66 69 70 70 70 70 70 70 69 69 69 70
13 14 15 16 17 18 19 20 20 22 23 24 24 24 24 24 24 26 26 27 27 27 27 27 28 28 30 32 36 39 42 44 46 48 50 52 54 56 57 59 60 59 58 58 58 59 60 60 61 60 61 62 62 63 64 64 64 64 64 64 65 64 64 65 65 66 66 65 64 62 60 58 58 60 64 70 73 74 74 73 72 72 72 71 70 69
14 15 16 17 18 18 19 20 20 21 22 23 24 24 24 24 25 26 28 28 29 29 28 29 30 31 32 34 37 39 42 43 45 46 48 50 53 56 58 61 62 62 62 61 60 60 61 62 62 62 62 63 64 64 66 66 66 66 66 65 64 63 64 65 66 66 66 65 62 60 56 54 54 56 60 68 74 77 78 76 76 74 75 74 73 72
14 15 16 17 17 18 18 19 20 21 22 22 22 22 23 24 25 26 28 28 28 27 27 28 30 33 36 38 40 41 42 44 45 46 47 48 50 54 57 60 62 64 64 64 64 64 63 64 64 64 64 65 65 65 66 67 67 67 66 64 63 62 62 63 64 65 65 62 58 55 51 49 50 52 58 65 72 77 80 79 78 78 78 78 77 76
15 16 16 16 17 18 18 18 19 20 21 21 22 22 23 24 25 26 26 26 26 25 26 28 31 34 37 40 42 44 45 46 46 47 47 47 48 51 54 58 60 63 65 66 66 66 66 66 66 66 66 65 65 65 64 65 65 65 64 64 63 62 62 61 61 60 60 56 53 49 46 44 46 50 55 62 70 76 79 80 80 80 80 80 80 80
15 15 16 16 16 17 17 18 18 19 20 20 21 22 23 24 25 26 26 25 24 24 26 29 32 35 38 42 44 46 48 48 49 50 50 49 49 49 51 54 58 60 62 64 64 65 66 66 66 66 65 65 64 64 62 62 62 62 63 63 63 64 63 61 59 56 52 49 45 42 41 42 44 48 54 60 68 74 78 79 80 80 81 81 82 81
15 15 15 16 16 16 16 17 18 18 19 20 21 22 24 24 25 26 25 24 24 24 26 29 32 35 39 42 45 48 50 51 52 54 54 53 52 51 51 52 54 56 58 58 60 60 61 61 62 62 62 62 62 62 61 61 61 61 61 61 61 61 60 58 54 50 46 42 39 38 38 40 44 49 54 60 66 72 77 78 79 79 80 81 81 82
15 15 15 15 16 16 16 17 18 18 20 20 22 23 24 25 26 26 25 24 24 25 26 30 32 35 38 42 45 47 50 52 54 56 57 58 57 56 54 52 52 52 53 53 53 54 54 55 56 57 57 58 59 60 60 60 60 60 59 58 57 55 53 50 47 43 40 36 35 35 38 42 46 51 55 60 64 70 74 78 79 79 79 80 80 81
16 16 16 16 16 16 17 17 18 19 20 21 22 24 24 26 26 26 26 24 24 26 27 30 32 35 38 40 43 46 48 51 53 55 57 58 60 60 58 56 54 51 50 50 49 49 49 50 52 54 56 57 58 58 58 58 58 57 55 53 50 48 45 42 39 36 33 32 33 35 39 44 49 53 56 60 64 68 72 76 78 79 79 80 80 81
16 16 16 16 16 17 17 18 19 20 21 22 23 24 25 26 26 26 24 24 24 25 27 29 32 34 37 40 42 45 47 49 51 52 54 56 58 59 60 59 58 56 54 53 52 52 52 53 54 56 58 58 58 58 56 55 53 52 49 46 44 41 38 36 33 30 28 30 33 37 42 47 52 56 59 61 64 67 71 74 77 79 79 80 80 81
16 16 16 16 17 17 18 19 20 20 22 23 24 24 26 26 26 25 24 23 24 24 26 28 31 33 36 39 42 44 46 48 50 51 52 54 55 56 57 58 58 60 60 61 62 62 63 63 64 64 64 63 60 58 54 51 48 46 43 41 39 36 33 30 28 26 27 30 35 40 46 52 56 60 62 64 66 68 70 74 76 78 79 80 81 82
16 16 16 16 17 18 18 19 20 21 22 24 24 26 26 26 26 25 24 24 24 24 26 27 30 32 35 38 40 42 45 47 48 50 51 52 52 53 53 54 55 56 58 61 64 68 72 73 74 73 72 68 63 58 53 48 44 40 38 36 34 31 29 26 25 26 28 34 40 46 52 56 60 63 66 68 68 69 70 73 76 78 79 80 80 81
16 16 16 17 18 18 19 20 21 22 23 24 25 26 26 27 26 26 24 24 24 24 25 27 29 31 33 36 39 42 44 46 47 48 50 50 50 50 50 50 50 51 52 53 56 58 62 66 68 70 70 66 62 57 51 45 40 36 33 31 29 27 25 24 24 27 32 39 45 52 57 60 64 67 70 71 71 71 71 73 76 77 78 79 80 80
Wind_Speed
41 42 43 44 45 47 49 50 51 52 53 55 55 56 56 57 57 57 57 57 57 56 56 55 54 53 52 51 50 50 49 48 48 47 46 45 45 45 44 44 44 44 44 43 43 43 42 42 42 42 42 42 42 42 42 43 43 42 42 42 41 41 40 39 39 38 37 36 36 35 35 35 35 35 35 35 36 36 37 38 38 39 39 39 39 39
41 43 44 45 46 48 49 51 52 53 54 55 56 56 56 56 56 56 56 56 55 54 53 52 52 51 50 49 49 48 47 47 46 45 44 44 43 43 43 43 42 42 42 42 41 41 41 41 41 41 41 41 41 40 40 40 39 39 38 38 37 37 36 35 34 34 33 32 32 31 31 31 31 31 31 31 31 32 32 32 32 32 32 32 31 32
42 43 45 46 47 48 50 52 53 54 54 55 56 56 56 56 55 55 54 54 53 52 51 50 49 49 48 48 47 46 46 45 44 43 43 42 42 42 42 42 41 41 41 41 40 40 40 40 39 39 39 38 38 37 36 36 35 34 34 33 33 32 31 31 30 30 29 29 29 29 29 29 29 29 29 29 29 28 28 28 28 27 26 26 26 27
42 44 46 47 49 50 51 52 54 55 55 55 56 56 55 55 54 53 52 51 50 49 49 48 47 47 47 46 46 45 44 43 43 42 42 42 42 42 41 41 41 40 40 39 39 39 38 38 37 37 36 35 34 33 33 32 31 31 30 30 29 29 28 28 28 27 27 27 27 27 27 27 27 27 27 27 27 27 26 26 26 25 24 24 24 25
44 45 47 49 50 52 53 54 55 55 56 55 55 54 54 53 52 51 50 49 48 47 47 46 45 45 45 45 45 44 43 43 42 42 42 42 41 41 40 40 39 39 38 37 37 36 36 35 35 34 33 32 31 30 29 29 28 28 27 27 27 26 26 26 26 25 25 25 25 25 25 25 25 25 25 25 25 25 25 25 25 25 25 25 25 26
45 47 49 50 52 53 54 55 56 56 56 56 55 53 52 51 50 49 48 47 47 46 46 45 44 44 44 45 45 44 43 42 41 41 41 41 40 40 39 38 37 37 36 35 35 34 34 33 32 31 30 29 28 28 27 26 26 26 26 25 25 25 24 24 24 24 24 24 24 24 24 24 24 23 23 23 23 23 23 23 23 24 24 25 26 26
47 48 50 51 53 54 54 55 56 56 56 55 54 53 51 50 48 47 46 46 46 46 46 45 45 44 44 44 44 43 42 41 41 40 39 39 38 38 37 36 36 35 34 34 33 33 32 31 30 29 28 27 26 26 25 25 24 24 24 24 23 23 23 23 22 22 22 22 22 22 22 22 22 22 21 21 21 21 21 21 21 22 22 23 23 24
49 50 51 52 53 55 55 55 55 55 55 54 53 52 51 50 48 46 45 44 44 45 45 45 45 45 44 43 42 42 41 41 40 39 39 38 37 36 35 35 34 33 33 33 32 32 31 30 29 27 26 25 24 24 23 23 23 23 22 22 22 22 21 21 21 21 21 21 21 21 20 20 20 20 20 20 19 19 19 19 19 19 19 19 20 20
49 51 52 53 53 54 55 56 56 54 53 52 51 49 49 49 48 47 46 45 44 44 44 45 45 45 45 43 42 40 40 39 39 38 37 37 37 36 35 34 33 32 32 32 31 30 29 28 26 25 24 23 23 22 22 22 22 21 21 21 21 21 20 20 20 20 20 20 20 20 19 19 19 19 19 19 19 18 18 18 18 18 18 17 17 18
50 51 52 53 54 54 54 54 54 54 52 51 49 48 46 46 47 47 47 47 46 45 45 44 44 44 45 44 42 40 38 37 37 36 36 35 35 34 33 33 32 32 31 31 30 28 27 25 24 23 22 22 22 21 21 21 21 21 20 20 20 20 20 19 19 19 19 19 19 19 19 19 19 19 19 18 18 18 18 18 18 18 18 17 17 17
50 51 52 53 54 54 54 53 52 51 50 49 48 47 46 45 45 46 47 48 47 47 46 45 44 43 43 43 42 40 38 36 35 35 34 34 33 32 31 31 30 30 30 29 28 26 24 23 22 21 21 21 21 21 21 20 20 20 20 20 19 19 19 19 19 19 19 19 19 19 19 19 19 19 19 19 19 19 19 19 18 18 18 18 18 18
50 51 52 52 53 53 53 52 51 50 48 47 47 47 47 47 46 46 47 47 47 47 46 46 45 43 42 41 40 39 37 34 33 33 33 32 32 30 29 29 28 28 27 26 25 23 22 21 20 20 20 20 20 20 20 20 19 19 19 19 19 19 19 18 19 19 19 19 19 19 19 19 19 19 19 19 19 19 19 19 19 19 18 18 18 18
51 51 52 52 52 52 51 51 50 49 48 47 46 46 47 47 48 48 47 47 47 46 45 45 44 43 42 40 39 37 35 33 32 31 31 31 31 30 29 28 27 26 25 23 22 20 19 19 19 19 19 19 19 19 19 19 19 18 18 18 18 18 18 18 18 19 19 19 19 19 20 20 20 20 20 20 20 20 20 19 19 19 19 18 18 18
51 51 51 50 50 50 50 49 49 48 47 47 46 46 47 47 47 47 47 47 46 45 44 43 42 41 40 39 38 36 35 32 30 29 29 29 29 29 28 27 26 25 23 22 20 19 19 18 18 18 18 18 18 18 18 18 18 18 18 18 18 18 18 18 19 19 19 19 20 20 20 20 20 21 21 21 21 20 20 20 20 19 19 19 18 18
50 50 50 49 49 49 48 48 48 48 47 47 46 47 47 48 48 47 47 46 46 45 43 42 41 40 38 36 35 34 33 32 30 28 27 28 28 27 26 25 24 23 22 20 19 19 18 18 18 18 18 17 17 17 17 17 17 17 17 17 18 18 18 18 19 19 19 20 20 20 20 21 21 21 21 21 21 21 21 21 20 20 20 20 19 19
49 49 49 48 48 48 48 48 48 47 47 47 47 46 47 47 47 47 46 45 45 44 42 41 40 39 38 35 33 32 31 30 29 27 26 26 26 26 25 24 23 22 21 20 19 18 18 18 17 17 17 17 17 16 16 17 17 17 17 17 17 18 18 18 19 19 19 20 20 20 21 21 21 21 21 21 21 21 21 21 21 21 20 20 20 20
49 48 48 48 47 47 48 48 48 48 47 47 47 46 46 46 46 46 45 44 44 43 42 40 39 38 37 36 34 32 31 30 29 27 26 25 25 25 24 24 23 22 20 19 18 18 18 17 17 16 16 16 16 16 16 17 17 17 17 17 18 18 18 18 19 19 19 20 20 20 21 21 21 21 22 22 22 22 22 22 21 21 21 21 20 20
48 47 47 47 47 47 47 47 48 48 48 47 47 46 46 45 45 44 44 43 42 41 41 40 39 37 37 35 34 33 32 30 29 27 26 25 24 24 23 23 22 21 20 19 18 18 17 17 16 16 16 16 16 16 16 17 17 17 17 17 17 17 18 18 18 19 19 20 20 21 21 22 22 22 22 23 23 23 23 23 22 22 22 21 21 20
47 47 46 46 47 47 47 47 47 48 48 47 46 46 45 45 44 44 43 42 41 40 39 38 37 37 36 35 34 33 32 31 29 27 26 25 24 23 22 22 21 20 19 18 18 17 16 16 16 16 16 16 16 16 16 16 17 17 17 17 17 17 17 18 18 19 20 20 21 22 22 23 23 24 24 24 24 24 24 24 24 23 23 22 22 21
46 46 45 46 46 47 47 47 47 47 47 46 46 45 44 44 43 42 41 40 39 38 37 36 35 35 35 34 34 33 32 31 29 27 25 24 23 22 22 21 20 20 18 18 17 17 16 16 16 16 16 16 16 16 16 16 16 16 16 16 17 17 18 18 19 20 21 22 22 23 24 24 25 25 26 26 26 26 26 26 26 25 25 24 23 22
46 46 45 45 45 46 47 47 47 47 46 46 46 45 44 43 42 41 40 39 38 36 35 34 33 33 33 33 33 33 32 30 29 27 25 24 22 21 21 21 20 19 18 17 16 16 16 16 16 16 16 16 16 16 15 15 15 15 16 16 17 18 19 19 20 21 22 23 24 25 25 26 26 27 27 28 28 28 28 28 28 27 26 25 24 23
45 45 46 45 45 45 46 47 47 47 46 45 44 44 43 43 42 41 40 38 36 35 33 32 32 31 32 32 32 32 31 29 28 26 25 23 22 20 20 20 20 19 18 17 16 16 16 16 16 16 15 15 15 15 15 15 15 15 16 17 18 19 20 21 22 23 23 24 25 26 26 27 28 28 29 29 29 29 29 29 29 28 28 27 25 24
44 44 45 45 45 46 46 46 46 46 46 44 43 43 42 40 39 38 38 36 35 33 32 31 30 29 29 29 29 29 28 27 26 25 24 23 21 20 20 19 19 19 18 17 16 16 16 16 16 15 15 15 15 14 14 14 15 16 17 18 19 20 21 22 23 24 25 25 26 27 28 29 29 30 30 30 31 31 31 30 30 29 28 28 26 25
44 44 44 45 45 45 46 46 46 45 45 44 43 42 41 39 38 36 35 34 33 32 30 29 27 26 26 26 25 25 25 24 24 23 22 21 20 20 19 19 19 19 18 17 16 16 16 16 15 15 15 14 14 14 14 15 15 17 18 19 20 21 22 23 24 25 26 27 28 29 29 30 31 31 31 32 32 32 31 31 30 30 29 28 27 25
43 44 44 45 45 45 45 45 45 44 44 43 42 41 40 39 37 35 34 33 31 30 28 26 24 22 22 22 22 21 22 22 21 21 20 20 19 18 18 18 18 18 18 17 16 16 16 15 15 14 14 14 14 14 15 15 16 18 19 20 21 22 23 24 25 26 27 28 29 30 31 32 32 33 33 33 33 33 32 32 31 30 29 28 27 25
43 43 44 44 45 44 44 44 44 43 42 41 40 39 38 37 35 34 32 30 29 27 25 23 21 20 19 19 18 18 19 19 19 19 19 18 18 17 17 17 17 18 18 18 17 16 16 15 14 13 13 13 14 14 15 16 17 18 19 20 21 22 23 25 26 27 28 30 31 32 33 33 34 34 34 34 34 34 33 32 32 31 30 29 27 26
43 43 44 44 44 44 43 43 42 42 41 40 39 37 36 35 33 31 29 28 27 25 24 22 20 19 17 16 16 16 17 17 17 17 17 17 17 17 16 16 16 16 17 17 17 17 16 15 14 13 13 13 14 15 16 17 18 19 20 21 22 23 24 26 27 28 29 31 32 33 34 34 35 35 35 35 34 34 34 33 32 31 30 29 28 26
42 43 43 43 43 43 42 42 41 40 40 39 38 36 35 33 31 29 28 27 25 24 23 22 20 18 16 15 15 15 16 16 16 16 16 16 16 16 16 16 15 15 15 15 16 17 16 15 14 13 13 13 14 15 16 17 18 19 20 21 22 23 25 26 28 29 30 31 32 33 34 35 35 35 35 35 35 34 34 33 32 31 30 29 28 26
42 42 43 43 42 42 41 41 40 39 38 37 36 35 34 32 29 28 27 26 24 23 22 21 19 17 15 14 13 13 14 14 15 15 15 15 15 15 16 16 16 15 13 13 13 15 16 15 14 13 13 14 14 15 16 17 18 19 20 21 22 24 25 27 28 29 31 32 33 34 34 35 35 35 35 35 34 34 33 33 32 31 30 29 28 26
42 42 43 42 42 41 40 39 39 38 37 36 35 34 33 31 29 27 26 24 23 21 20 19 18 16 15 13 11 11 12 13 14 14 14 14 15 15 16 16 16 16 14 12 11 12 14 15 14 14 14 14 15 15 16 17 17 18 20 21 23 24 25 27 28 30 31 32 33 34 34 35 35 35 35 35 34 34 33 32 32 31 30 29 28 26
42 42 42 42 42 41 40 39 38 37 36 35 34 33 32 31 29 27 25 23 21 19 18 17 16 15 14 13 12 12 13 14 14 14 14 15 15 15 16 16 17 17 16 14 13 12 12 13 14 15 15 15 16 16 17 17 18 19 20 21 23 24 26 27 29 30 31 32 33 34 35 35 35 35 35 34 34 33 33 32 31 31 30 29 27 26
41 41 41 41 41 40 39 38 37 36 35 34 33 32 31 29 28 26 24 22 20 18 16 14 13 12 12 13 14 14 14 14 14 14 14 15 15 16 16 16 16 17 16 16 15 14 13 13 14 15 15 16 16 17 18 18 19 20 21 22 24 25 27 28 29 31 32 33 34 35 35 36 36 35 35 34 33 33 32 32 31 31 30 29 27 26
41 41 41 41 40 39 38 37 36 35 34 32 32 31 29 28 26 24 22 20 19 17 15 13 12 10 10 11 12 14 14 15 15 15 15 16 16 16 16 16 16 16 16 16 15 15 14 14 14 14 15 16 17 18 19 20 21 22 23 24 25 27 28 29 30 32 33 34 35 36 36 36 36 36 35 34 33 32 32 32 31 31 31 30 28 26
42 41 41 40 39 38 37 36 34 33 32 31 30 29 28 26 24 22 21 19 17 16 15 13 12 11 10 11 11 12 13 15 15 16 16 16 16 17 16 16 16 15 15 15 14 14 14 14 14 14 14 15 17 18 19 21 22 24 25 26 28 29 30 31 32 33 34 36 37 38 38 38 37 36 35 34 33 32 31 31 31 31 31 30 29 28
41 41 40 39 38 37 36 35 33 32 31 29 28 27 25 24 22 20 19 17 16 15 14 14 13 12 12 12 13 13 14 15 15 16 17 17 17 17 17 17 16 15 15 14 14 14 14 14 14 14 14 14 16 17 19 21 23 25 26 28 29 31 32 33 34 34 36 37 38 39 39 39 39 37 36 34 33 31 31 30 30 30 30 30 30 28
41 40 39 38 37 36 35 33 32 31 29 28 26 25 23 21 20 18 17 16 15 15 14 13 13 13 13 14 14 15 15 15 16 17 18 18 18 18 18 17 17 16 15 14 14 13 13 14 14 15 15 15 16 17 19 21 23 25 27 29 30 32 33 34 35 36 37 38 38 39 40 40 39 38 37 35 33 31 30 29 29 29 29 29 29 28
40 39 38 37 36 34 33 32 31 29 28 26 25 23 21 19 17 16 15 14 14 14 15 14 14 13 13 14 15 16 16 16 17 17 18 18 18 18 18 18 18 17 16 15 14 14 14 14 14 15 16 17 18 19 20 21 23 25 27 29 31 33 34 35 37 37 38 38 39 39 39 39 39 38 37 35 33 31 29 28 28 27 28 28 28 27
39 38 37 36 34 33 32 31 29 27 26 24 22 21 19 18 16 15 14 14 14 14 15 15 15 14 14 15 15 16 16 17 17 18 18 18 19 18 18 18 18 17 17 16 15 15 15 15 15 16 17 19 20 22 23 24 25 26 28 30 32 34 35 36 38 38 39 39 39 39 39 38 38 37 37 36 34 32 30 28 27 26 26 26 26 26
38 37 35 34 33 32 31 29 28 26 24 22 21 19 18 16 15 14 14 14 15 15 15 16 16 16 16 16 16 17 17 17 18 18 18 18 18 18 18 18 18 18 18 17 16 16 16 17 17 18 19 20 22 24 25 27 28 29 30 31 33 34 36 37 38 39 39 40 40 39 39 38 37 36 36 35 35 33 32 30 28 27 26 26 25 25
37 35 34 33 31 30 29 27 26 25 23 21 19 18 16 15 15 14 14 14 15 15 15 16 16 17 17 17 18 18 18 18 18 18 18 18 18 18 18 18 18 18 18 18 18 18 18 19 19 20 21 22 24 26 27 29 31 32 33 34 34 35 36 38 39 39 40 40 40 40 39 38 37 36 35 34 34 33 32 31 30 28 28 27 27 26
36 34 33 32 30 29 27 26 24 23 22 20 18 17 16 15 14 14 14 14 14 14 14 15 16 17 18 19 19 19 19 19 19 19 18 18 18 18 18 18 18 19 19 20 20 20 20 21 21 22 24 25 26 27 29 31 32 34 35 36 36 37 37 38 39 39 40 40 40 40 39 38 37 36 34 33 33 32 32 31 30 29 29 28 28 28
34 33 32 31 29 28 27 25 24 22 21 19 17 16 15 14 13 13 12 12 12 12 12 12 13 14 16 18 19 20 20 20 20 20 19 19 18 17 17 18 18 19 20 20 21 22 22 23 23 24 25 26 28 29 30 31 33 34 35 36 37 37 38 38 38 39 40 40 40 40 39 38 37 36 34 33 31 31 31 30 30 29 29 28 28 28
34 32 31 29 28 27 25 24 23 21 20 18 16 15 14 13 13 12 12 11 11 11 11 11 12 14 15 17 18 20 20 21 21 21 21 21 20 19 18 18 18 19 20 20 21 22 23 24 25 25 26 27 28 30 31 32 33 34 35 36 38 38 38 39 39 39 39 40 40 40 39 38 37 36 34 32 31 30 29 29 28 28 28 27 27 27
33 32 30 29 27 26 25 23 21 20 19 17 16 15 14 13 13 12 12 11 11 11 11 11 12 13 14 16 17 19 20 21 22 22 23 23 22 21 20 19 18 19 19 20 20 21 22 23 24 25 27 28 29 30 31 32 33 33 35 36 37 38 39 40 40 40 40 40 40 40 40 39 38 36 34 32 30 29 28 27 27 27 26 26 26 26
32 31 30 28 27 25 24 23 21 19 18 17 16 15 14 14 13 13 12 12 11 11 11 11 12 13 14 15 16 18 19 20 21 22 23 24 24 23 22 21 20 20 20 20 20 21 21 22 23 25 26 27 29 30 31 32 33 33 34 35 36 37 38 39 40 41 41 41 40 40 40 39 38 37 34 32 30 28 27 26 26 26 25 25 25 25
31 30 29 28 26 25 23 22 21 19 18 17 16 15 14 14 14 13 13 12 11 11 11 12 13 14 14 15 16 17 18 18 19 20 21 23 24 24 24 24 23 22 21 21 21 21 22 23 24 25 26 28 29 30 31 32 33 33 34 35 36 37 38 39 40 40 41 41 41 41 41 40 39 37 35 32 29 27 26 26 25 25 25 24 24 24
31 29 28 27 25 24 23 21 20 19 18 16 16 15 15 14 13 13 12 11 11 10 11 12 13 14 15 16 17 17 17 18 18 19 20 21 22 23 24 25 25 25 24 23 23 24 24 25 27 28 28 29 30 31 32 33 33 34 35 36 37 38 38 39 39 40 40 41 41 41 41 40 39 37 35 32 29 27 26 25 25 25 25 24 24 24
29 28 27 26 25 23 22 20 19 18 17 16 16 15 15 14 14 13 12 11 10 10 10 11 13 14 16 17 18 18 19 19 19 19 19 19 20 21 22 23 25 26 26 27 27 28 28 29 30 31 31 32 32 32 33 33 34 35 36 37 38 39 39 40 40 40 40 40 40 40 40 40 39 38 35 33 30 28 26 25 24 24 24 24 24 23
28 27 26 25 24 22 21 20 19 18 17 16 16 15 15 15 14 13 13 12 11 11 11 12 13 14 16 17 18 19 19 19 20 20 19 19 19 19 20 20 21 22 24 25 26 28 29 31 32 33 33 33 33 33 34 34 35 36 37 38 39 40 40 40 40 40 40 40 40 40 39 39 38 37 36 33 31 29 27 25 25 24 24 23 23 22
27 26 25 24 23 22 20 19 18 17 16 16 16 15 15 15 15 14 14 13 12 12 12 13 14 15 16 18 18 19 19 20 20 20 20 19 19 19 19 19 19 19 20 20 21 22 24 26 28 31 32 33 34 34 34 35 36 37 38 39 40 41 41 41 41 41 41 41 40 40 39 38 37 36 35 34 32 30 27 26 25 24 24 23 22 21
26 25 24 23 22 21 20 19 18 17 16 16 16 15 15 15 14 14 14 13 13 13 13 14 15 16 17 18 19 19 20 20 20 20 20 20 20 20 20 20 20 19 19 19 19 19 19 20 22 25 28 31 33 35 35 36 37 38 39 40 41 42 42 42 42 42 41 41 41 40 39 38 37 36 35 34 33 31 29 27 26 25 24 23 21 20
Wind_Direction
315 315 315 316 316 316 316 316 316 317 316 316 316 316 316 316 316 316 316 316 316 316 315 315 315 314 314 313 313 313 312 312 312 312 312 311 310 309 308 306 305 305 304 304 303 303 302 302 302 302 302 302 302 302 302 302 302 303 303 303 304 304 304 304 304 304 303 302 301 300 299 297 295 293 291 289 286 284 281 279 278 277 276 275 276 277
315 315 315 316 316 316 316 316 316 316 316 316 316 317 317 317 317 317 317 317 317 316 316 316 315 315 314 314 314 314 314 314 314 313 313 312 310 309 308 307 307 306 306 305 305 305 305 304 305 305 305 305 305 305 306 306 306 306 306 306 307 307 307 307 307 307 306 305 304 303 302 300 298 297 295 294 292 290 288 286 284 282 281 280 281 281
315 315 316 316 316 316 316 317 317 317 317 317 317 317 318 318 318 318 318 318 317 316 316 316 316 315 315 314 314 315 315 315 315 314 313 312 311 310 309 309 308 308 308 308 308 308 307 308 308 308 308 309 309 310 310 310 310 310 310 310 310 310 310 310 310 309 308 307 306 305 304 302 301 300 298 296 295 293 292 290 288 286 285 285 285 285
316 316 317 317 317 317 317 317 317 317 317 317 318 318 319 319 319 319 318 318 317 317 316 316 316 316 315 315 315 316 316 316 316 315 313 312 312 311 311 311 311 311 310 310 310 310 311 311 311 312 312 313 314 314 315 315 314 314 313 313 313 313 313 313 312 311 310 309 308 307 306 304 304 303 301 299 297 295 293 291 288 285 282 280 279 279
317 318 318 318 318 318 318 318 318 318 318 318 318 319 319 319 320 319 319 318 318 317 317 317 317 317 316 316 317 317 317 317 316 315 314 314 313 313 313 313 313 313 313 313 313 313 314 315 315 317 318 319 320 320 319 319 318 317 317 316 316 316 316 315 315 314 313 312 312 311 310 309 308 306 305 303 302 300 297 295 292 288 284 280 277 275
319 319 319 319 319 319 319 318 318 318 318 319 319 319 320 320 320 320 319 319 318 318 318 318 318 318 318 318 318 319 318 318 317 316 316 315 315 315 316 316 316 316 316 316 316 317 318 320 321 323 324 325 325 324 323 322 321 320 320 320 320 320 320 319 319 319 318 318 317 317 316 316 315 314 313 311 309 307 305 303 300 297 293 289 286 282
320 320 320 320 319 319 319 318 318 318 319 319 320 320 321 321 321 320 320 319 319 320 320 320 320 319 319 319 320 320 319 319 318 318 318 318 318 318 318 318 318 319 319 320 321 322 324 326 328 329 329 329 328 326 325 325 325 325 325 326 326 326 326 325 325 325 325 325 325 325 325 325 324 323 322 321 319 317 315 313 310 307 304 300 297 294
321 321 320 320 319 319 319 318 318 319 319 320 321 322 322 322 322 322 321 321 321 321 321 321 321 320 320 321 321 321 321 320 320 321 321 321 321 321 321 322 322 323 324 324 326 328 330 332 333 333 332 331 330 330 330 330 331 331 332 333 333 333 333 333 333 334 334 334 334 334 334 334 333 333 332 330 329 327 325 323 320 317 314 311 307 304
321 320 320 319 319 319 319 319 319 320 321 322 323 323 324 324 323 323 322 322 322 322 322 322 322 322 322 322 323 323 323 323 323 324 324 324 324 324 325 326 327 327 328 329 331 333 335 337 337 336 335 334 334 335 336 337 338 339 340 340 340 341 341 341 341 342 342 342 342 342 342 341 341 340 339 337 336 334 333 331 328 326 323 320 317 314
321 320 319 319 319 319 319 320 320 322 323 324 325 325 325 324 324 323 323 323 323 324 324 324 324 323 324 324 325 326 327 327 327 327 327 327 327 328 329 330 330 331 331 333 335 338 339 340 339 338 338 338 340 341 343 344 345 346 346 346 347 347 348 348 348 348 348 348 348 348 347 346 346 345 343 342 341 339 338 336 334 332 330 327 325 323
320 320 320 320 320 320 321 321 322 323 325 326 326 326 326 325 324 324 324 324 325 326 326 326 326 326 326 326 327 328 330 331 331 330 330 330 330 331 332 333 333 333 334 337 340 342 343 342 342 342 343 344 346 347 348 349 350 351 351 352 353 353 353 354 354 353 353 353 352 351 351 350 349 348 346 345 344 343 341 340 338 336 334 333 331 329
321 321 321 321 321 322 322 323 324 325 326 327 327 326 326 325 326 326 326 326 327 328 328 328 328 328 329 329 329 330 331 333 334 333 332 331 332 333 334 335 335 335 338 341 344 345 345 345 346 346 348 350 351 352 353 353 354 355 355 356 357 357 357 357 357 356 356 355 354 354 353 352 351 349 349 347 346 345 344 342 341 339 338 337 335 334
322 322 322 323 323 323 324 324 325 326 327 328 328 328 327 327 327 328 328 328 329 329 330 329 329 329 330 331 332 332 334 336 337 336 334 333 333 335 336 337 337 340 343 347 349 349 349 350 351 352 353 354 355 355 356 356 357 358 359 360 0 1 0 360 359 359 358 357 356 355 354 353 352 350 349 348 347 346 344 343 341 340 339 338 337 336
323 323 324 324 324 325 325 325 326 327 328 329 330 329 329 328 328 329 329 330 330 331 331 331 331 331 331 332 333 334 335 337 339 339 337 335 336 337 338 340 342 345 349 352 353 353 353 354 355 356 356 357 357 358 358 359 0 1 2 3 3 3 3 2 1 360 359 358 357 356 354 353 352 351 349 348 346 344 343 341 339 338 336 335 335 334
325 325 325 325 326 326 326 327 328 329 330 331 331 331 330 330 330 330 331 331 331 332 332 333 332 332 332 334 335 335 336 338 340 341 339 338 338 340 341 343 346 350 354 355 356 356 357 358 359 359 359 359 359 0 1 2 4 5 5 5 5 5 4 3 2 1 360 359 358 357 355 354 353 351 349 347 345 343 341 339 337 335 333 332 330 330
326 326 327 327 327 327 328 328 329 330 331 332 332 332 331 331 331 331 332 332 332 332 333 333 333 333 333 334 336 337 338 339 341 343 342 342 342 343 345 347 350 354 357 358 358 358 359 0 1 1 1 1 2 3 4 6 6 7 7 7 7 6 5 4 3 3 1 0 359 358 357 355 354 352 350 348 345 343 341 338 336 333 331 329 327 326
327 328 328 328 328 329 329 330 331 331 332 333 333 332 332 332 332 332 332 333 333 333 333 334 334 333 333 334 336 338 340 342 344 346 346 347 347 347 349 350 353 357 359 360 359 360 1 1 2 2 3 4 5 6 7 8 8 9 9 8 8 8 7 7 6 5 4 3 2 0 359 357 355 353 351 349 347 344 342 339 336 334 331 328 326 324
329 329 330 330 330 330 331 331 332 332 333 333 333 333 333 333 333 333 333 334 334 334 334 334 334 334 334 335 337 339 341 344 347 349 350 350 350 351 352 353 355 358 360 0 0 1 2 3 3 4 5 6 7 8 9 9 9 10 10 10 10 10 10 9 9 8 7 5 4 2 0 358 356 355 352 350 348 346 343 341 338 335 332 330 327 324
330 331 331 331 331 331 332 332 333 333 333 334 334 334 334 334 334 334 334 334 335 335 336 336 335 335 336 337 338 340 342 346 349 352 352 353 353 353 353 354 356 358 0 1 1 2 3 4 5 6 7 8 8 9 9 10 11 11 12 13 13 13 13 12 11 10 8 6 4 2 0 358 357 354 352 350 348 346 344 342 340 337 334 331 328 324
332 332 332 333 332 332 332 333 333 334 334 334 334 334 334 334 334 334 335 335 335 336 336 337 337 337 337 338 339 341 343 347 350 353 354 354 354 354 354 355 356 359 1 1 1 3 5 6 7 8 9 9 9 10 11 11 13 14 15 16 16 16 15 14 12 10 8 6 4 2 360 358 355 353 351 349 348 346 344 343 341 338 336 333 329 325
333 333 333 333 333 333 333 333 333 334 334 335 335 335 335 335 335 335 336 336 336 337 337 338 339 338 338 339 340 342 344 347 350 352 354 355 355 354 354 355 356 359 2 3 3 5 6 8 9 9 9 9 10 11 12 14 16 17 18 18 18 16 15 13 11 9 7 5 3 1 359 356 354 352 351 349 347 346 344 343 341 340 337 334 331 326
334 334 334 334 334 334 333 333 334 334 335 335 335 335 336 336 336 336 336 337 337 338 339 340 340 340 340 340 341 342 344 346 348 350 352 353 354 355 355 355 356 358 2 5 6 6 7 8 9 9 9 10 11 13 15 17 18 19 19 18 17 15 13 11 9 7 5 3 1 359 358 356 354 352 350 348 346 345 344 342 341 340 339 336 333 329
335 335 334 334 334 334 334 334 334 335 335 336 336 336 336 336 337 337 337 337 337 339 340 341 342 342 342 341 340 341 342 345 347 349 351 352 354 356 356 356 356 358 2 6 8 9 9 9 9 9 10 11 13 15 17 19 20 19 18 16 14 12 10 8 7 5 3 1 360 358 357 355 353 351 349 347 345 344 343 342 341 340 339 338 335 331
336 335 335 334 334 334 335 335 335 335 336 336 336 336 336 337 337 337 338 338 338 340 341 343 344 343 341 339 339 340 341 343 346 348 349 352 354 356 357 357 357 358 1 5 9 10 10 10 10 10 11 12 14 16 18 19 19 18 16 14 12 10 8 6 4 2 1 360 358 357 356 354 353 351 348 346 345 343 342 341 341 341 340 339 337 333
336 335 335 335 335 335 335 335 335 336 336 336 337 337 337 337 337 338 339 340 340 341 342 343 344 342 339 337 337 339 341 343 346 348 349 352 355 357 358 359 358 358 359 4 8 11 11 12 12 12 13 13 15 17 17 18 17 15 13 11 9 7 5 3 1 0 359 358 357 356 355 354 352 350 348 346 344 343 342 342 341 341 341 340 339 336
336 335 335 335 335 336 336 336 336 336 336 337 337 337 337 337 338 339 340 341 341 341 341 342 343 343 341 339 338 339 342 345 347 349 350 353 356 358 360 1 1 0 359 1 5 9 11 13 15 15 16 16 16 16 16 15 14 12 11 9 7 4 3 1 359 358 358 357 356 355 355 353 352 350 348 346 344 343 342 342 341 341 341 341 341 339
336 335 335 335 336 336 336 336 336 336 336 337 337 337 338 338 339 339 340 341 341 341 342 343 344 345 344 343 343 343 345 347 350 351 353 355 357 359 1 4 5 4 1 359 0 4 9 14 17 19 19 18 17 16 15 13 12 10 8 6 4 2 0 359 358 357 356 356 355 354 354 353 351 350 348 346 344 343 342 342 342 342 342 342 342 341
336 335 335 336 336 337 337 337 337 337 337 337 337 338 338 339 339 340 340 341 343 344 345 345 347 348 349 350 349 348 347 349 352 355 357 358 358 359 1 5 7 8 6 1 359 359 5 11 16 19 20 19 18 16 14 12 10 8 6 4 2 360 358 357 356 356 355 355 354 353 353 352 351 349 347 346 344 342 342 341 341 342 342 343 343 342
336 336 336 336 337 338 338 338 337 337 337 338 338 338 338 339 340 341 342 344 346 347 348 348 348 350 353 355 355 353 350 352 355 358 360 1 1 1 2 3 6 8 10 9 3 358 359 5 12 17 17 17 17 15 13 11 9 6 4 1 359 358 357 356 355 355 354 353 353 352 352 351 350 349 347 346 344 343 342 341 341 342 342 343 343 343
337 337 337 337 338 339 339 339 338 338 338 338 339 338 339 340 342 343 345 347 349 350 350 350 350 351 354 358 360 360 359 359 359 1 2 3 3 4 3 3 3 5 8 11 10 5 360 1 5 9 12 13 12 11 10 8 6 4 1 359 357 356 355 355 354 353 353 352 351 351 351 350 350 349 348 346 344 343 342 341 341 342 343 344 344 344
338 338 338 338 339 339 340 339 339 339 339 339 339 340 340 341 343 345 347 349 351 353 353 353 353 353 354 356 360 4 6 5 4 4 4 4 4 4 4 4 3 2 3 5 8 10 9 5 3 3 6 7 7 6 4 3 1 360 358 356 355 354 354 353 353 352 351 350 350 350 350 350 350 349 348 347 345 343 342 341 341 342 343 344 345 346
339 339 339 339 339 340 340 340 340 340 340 340 340 341 342 343 344 346 349 351 353 355 357 358 359 359 359 359 1 4 7 7 7 7 6 5 5 4 4 4 4 2 1 2 3 5 8 8 5 1 1 2 1 0 359 357 356 355 354 353 353 353 352 352 351 350 349 349 348 348 349 349 349 349 349 347 346 344 343 342 342 343 344 345 346 347
340 340 340 340 340 341 341 341 341 341 341 341 342 342 343 344 346 348 350 353 355 356 359 2 6 9 10 10 9 8 8 8 8 7 6 5 4 3 4 4 4 4 2 1 360 0 2 4 4 2 359 358 357 356 355 353 352 351 351 351 352 352 351 350 350 349 348 347 347 347 348 348 349 349 349 348 347 345 344 343 343 343 345 346 347 348
341 340 341 341 341 341 341 341 341 341 342 342 343 344 344 346 348 349 352 354 356 358 1 4 9 13 17 18 18 15 12 10 7 6 5 4 2 1 2 3 4 4 4 2 0 359 358 359 0 0 358 356 354 353 352 351 350 349 349 350 350 350 349 349 348 347 347 346 346 346 347 347 348 348 348 348 347 346 345 344 344 344 345 346 347 347
341 341 341 342 342 342 342 342 342 342 342 343 344 345 346 347 349 350 352 355 357 360 3 7 9 12 14 16 17 18 16 13 8 5 4 3 1 360 359 0 2 4 4 3 2 360 358 356 355 355 355 353 352 350 350 349 349 348 348 348 348 348 347 347 346 346 346 346 346 346 346 346 347 347 348 348 348 347 346 345 345 345 346 346 347 347
341 341 342 342 343 342 342 342 342 343 343 344 345 346 347 348 350 351 354 355 357 1 6 11 15 16 15 14 15 16 16 13 9 5 3 1 360 358 357 357 359 1 2 2 1 360 357 354 352 350 348 348 347 347 347 347 347 347 347 346 346 345 345 344 344 344 344 345 345 346 346 346 346 346 346 347 348 348 347 346 346 346 346 346 346 346
342 342 343 343 343 343 343 342 343 343 344 344 346 347 348 350 351 353 355 357 359 3 7 13 17 20 20 18 15 14 13 11 9 6 3 0 359 357 355 354 355 357 358 358 358 357 355 352 349 346 344 343 343 342 343 344 345 345 345 345 344 343 343 342 342 342 343 344 345 345 346 346 346 345 345 346 347 348 348 347 346 346 346 346 346 346
342 343 343 344 344 344 343 343 344 344 345 345 347 348 350 351 353 355 357 359 2 5 8 11 14 17 18 17 15 13 12 10 9 7 4 360 358 356 354 352 352 353 354 354 354 353 350 348 345 343 342 341 340 340 340 341 343 344 344 344 343 342 341 341 340 341 341 342 344 345 345 346 346 345 345 345 345 346 347 347 346 346 346 346 347 346
343 344 344 345 345 344 344 344 345 345 346 347 349 351 353 354 355 356 358 1 4 6 8 8 9 10 12 13 12 11 10 9 9 8 6 2 358 356 354 352 351 350 351 351 350 349 346 344 342 341 340 340 340 339 340 340 341 342 343 343 342 341 340 339 339 339 340 341 342 343 344 345 346 346 345 344 344 345 345 346 346 346 346 346 346 347
344 345 345 346 345 345 345 346 346 346 348 349 352 354 356 357 357 358 360 2 4 6 6 6 5 4 5 6 7 8 8 7 8 8 7 4 0 357 354 353 351 349 348 348 347 345 344 342 340 339 339 339 339 340 340 340 340 341 341 341 340 339 338 338 338 339 340 340 341 342 344 345 346 347 346 345 344 344 344 345 345 346 346 346 346 346
345 346 346 346 346 346 347 347 348 348 350 351 353 355 357 358 359 1 2 3 5 5 5 3 1 359 358 360 2 4 5 5 5 6 7 7 4 359 356 353 351 348 347 345 344 343 342 341 340 339 338 338 339 339 340 339 339 339 339 338 337 337 336 337 337 338 339 340 340 342 343 345 347 348 348 347 345 344 343 344 345 345 346 346 345 345
347 348 348 348 348 348 348 348 349 350 351 353 355 357 358 359 360 1 3 4 5 5 4 2 359 357 355 355 357 359 1 2 2 3 5 6 6 4 359 354 351 349 347 345 343 341 341 340 339 338 338 337 338 338 338 338 338 337 336 335 334 334 335 336 337 338 339 340 340 341 343 345 347 348 349 348 346 344 343 343 344 345 346 345 345 344
348 349 349 349 349 349 349 350 350 351 352 354 356 358 358 359 0 1 3 4 5 5 4 2 0 358 356 355 355 356 357 358 359 360 1 3 4 5 2 358 353 349 346 344 342 340 339 338 338 337 336 336 336 336 336 336 335 334 333 332 332 333 334 335 337 338 339 340 341 342 343 345 347 348 349 349 347 346 344 344 344 345 345 345 345 343
349 350 350 350 351 351 351 351 352 352 354 356 357 358 359 359 0 1 3 4 4 4 4 3 2 360 358 356 355 354 355 356 357 357 358 358 360 1 2 359 355 350 346 344 342 340 339 338 337 336 336 335 335 335 334 334 333 332 332 331 332 333 335 336 337 338 340 341 341 342 343 345 346 348 349 349 348 347 345 345 344 345 345 345 345 343
350 351 351 352 352 352 352 352 352 353 355 357 359 359 359 359 360 1 2 3 3 2 1 1 1 0 359 358 357 355 354 355 355 355 355 355 356 356 357 357 355 351 347 344 342 341 340 339 338 337 336 335 335 334 333 332 332 332 331 332 332 334 335 337 338 339 341 342 342 343 343 344 346 347 348 349 349 348 347 346 345 345 346 346 345 344
351 352 353 353 353 354 354 354 354 355 357 359 359 360 359 360 360 0 1 1 1 360 359 358 358 358 359 359 359 358 356 356 355 354 354 354 353 352 352 352 352 351 348 346 344 342 341 340 339 338 337 336 335 334 333 332 332 332 332 333 334 335 337 338 339 341 342 342 343 343 343 344 345 346 348 349 350 351 350 348 347 347 347 347 346 344
352 353 354 355 355 355 356 356 357 358 359 0 0 360 360 360 360 360 360 360 359 359 358 357 357 357 357 358 358 358 358 357 356 356 355 354 352 351 350 350 349 349 348 347 346 344 343 341 340 339 338 337 336 335 334 333 333 333 334 334 335 337 338 339 341 342 343 343 343 343 343 344 345 346 348 350 352 353 353 352 350 349 348 348 347 345
353 354 355 355 356 357 358 358 359 360 1 0 360 359 359 359 359 359 359 359 359 359 359 358 357 357 357 356 357 357 357 357 357 357 356 355 353 352 350 350 349 349 349 348 347 346 345 343 341 340 339 337 337 336 335 334 334 334 335 336 337 338 339 341 342 343 344 344 344 343 344 344 345 347 349 351 353 355 356 355 353 352 351 350 348 346
354 355 356 356 357 358 359 359 0 1 1 0 360 359 358 358 357 357 358 358 358 358 359 359 358 358 357 357 356 356 356 356 356 355 355 354 353 353 353 352 352 351 350 349 348 346 345 343 341 339 337 336 335 335 335 335 335 336 337 338 338 339 340 342 343 344 344 344 344 344 345 345 346 348 349 351 354 356 358 358 356 354 353 352 350 347
355 356 357 357 358 359 359 360 0 1 1 0 360 359 358 357 356 356 356 356 356 356 356 357 357 358 358 357 357 356 355 355 354 354 353 353 353 353 353 353 353 353 351 350 347 345 343 341 338 336 334 334 334 334 335 335 336 337 338 339 340 340 341 343 344 345 345 345 345 346 346 347 348 349 351 352 354 357 359 360 359 357 355 353 351 348
357 357 358 359 359 360 360 0 0 1 1 0 359 358 357 356 355 354 354 353 353 353 353 354 356 356 357 356 355 355 354 354 353 352 352 352 352 352 352 353 353 352 351 350 348 346 344 341 338 336 335 335 335 336 336 337 337 339 340 341 341 342 342 343 344 345 346 346 346 347 348 349 350 351 352 353 355 357 359 0 1 359 356 354 351 348